User: anonymous   Login
Location: Unspecified
(0.0000°N, 0.0000°E)
Time: 18:05:34
(UTC+00:00)
Language:

STARLINK-35839 - Orbit

View from above orbital plane
View from above orbital plane
View from above satellite
View from above satellite

Ground track
Ground track

The orbit is defined by the following mean orbital elements,

1 67169U          26145.53974477 +.00000000 +00000-0 +51281-3 0 00006
2 67169  42.9994 237.1186 0000612 283.4152  76.6632 15.27593576    00
Epoch (UTC): 25 May 2026 12:57:13
Eccentricity: 0.0000612
inclination: 42.9994°
perigee height: 483 km
apogee height: 483 km
right ascension of ascending node: 237.1186°
argument of perigee: 283.4152°
revolutions per day: 15.27593576
mean anomaly at epoch: 76.6632°

The dashed part of the orbit path shows where the satellite is in the earth's shadow,  

DLR